User: anonymous   Login
Location: Oak Glen
(34.0495°N, 116.9470°E)
Time: 21:05:52
(UTC-08:00)
Language:

Tiangong 2 - Orbit

View from above orbital plane
View from above orbital plane
View from above satellite
View from above satellite

Ground track
Ground track

The orbit data is extracted from the following two-line orbital elements,

1 41765U 16057A   17346.82420878  .00003836  00000-0  51095-4 0  9996
2 41765  42.7856  13.2529 0002829  15.0928 161.3652 15.59797992 70863
Epoch (UTC): 12 December 2017 19:46:51
Eccentricity: 0.0002829
inclination: 42.7856°
perigee height: 386 km
apogee height: 390 km
right ascension of ascending node: 13.2529°
argument of perigee: 15.0928°
revolutions per day: 15.59797992
mean anomaly at epoch: 161.3652°
orbit number at epoch: 7086

The dashed part of the orbit path shows where the satellite is in the earth's shadow,  

DLR